Location: Bremen
(53.0793°N, 8.8017°E)
Time: 16:48:20
(UTC+01:00)

ISS - Pass Details

Date: 15 November 2025
Orbit: 416 x 420 km, 51.6° (Epoch: 12 December)

Event Time Altitude Azimuth Distance (km) Brightness Sun altitude
Rises 18:07:29 0° 209° (SSW) 2,360 0.7 -14.5°
Reaches altitude 10° 18:10:02 10° 189° (S) 1,498 -0.7 -14.9°
Maximum altitude 18:12:22 18° 145° (SE) 1,120 -1.8 -15.3°
Enters shadow 18:12:44 17° 136° (SE) 1,132 -1.9 -15.3°
